Location: Meinert
(37.9441°N, 122.0275°W)
Time: 18:00:55
(UTC+00:00)

Cosmos 1655 Rocket - Pass Details

Date: 18 April 2024
Orbit: 971 x 1005 km, 83.0° (Epoch: 23 May)

Event Time Altitude Azimuth Distance (km) Brightness Sun altitude
Rises 12:17:14 0° 188° (S) 3,650 6.7 -13.8°
Reaches altitude 10° 12:19:43 10° 190° (S) 2,706 6.0 -13.4°
Maximum altitude 12:25:55 80° 277° (W) 991 4.0 -12.3°
Drops below altitude 10° 12:32:11 10° 4° (N) 2,728 6.7 -11.2°
Sets 12:34:42 0° 6° (N) 3,682 7.4 -10.7°
